Date,TemperatureHighF,TemperatureAvgF,TemperatureLowF,DewpointHighF,DewpointAvgF,DewpointLowF,HumidityHigh,HumidityAvg,HumidityLow,PressureMaxIn,PressureMinIn,WindSpeedMaxMPH,WindSpeedAvgMPH,GustSpeedMaxMPH,PrecipitationSumIn
2013-1-1,41,32,10,30,21,7,92,64,49,30.02,29.80,13,6,23,0.00
2013-1-2,34,20,7,21,12,3,92,70,48,30.23,29.98,12,4,18,0.00
2013-1-3,21,13,1,16,5,0,100,71,52,30.26,30.01,12,2,17,0.00
2013-1-4,43,31,21,28,23,16,92,72,51,30.02,29.87,13,4,18,0.00
2013-1-5,45,36,21,28,24,18,92,63,44,30.28,29.95,13,5,22,0.00
2013-1-6,45,36,25,30,28,19,92,75,56,30.21,29.93,10,5,0,0.00
2013-1-7,41,31,18,34,25,16,92,79,60,30.40,30.01,13,4,21,0.00
2013-1-8,46,36,25,30,28,21,100,73,49,30.40,30.29,14,5,22,0.00
2013-1-9,48,34,18,36,28,16,100,78,46,30.38,30.03,20,5,27,0.00
2013-1-10,48,42,28,30,28,27,92,58,45,30.58,30.16,20,8,31,0.00
2013-1-11,41,34,25,39,31,25,100,87,60,30.57,30.14,14,5,20,0.00
2013-1-12,50,43,39,46,42,39,100,97,87,30.18,30.10,9,2,0,0.00
2013-1-13,52,46,39,48,45,39,100,96,87,30.15,29.97,20,7,25,0.00
2013-1-14,54,47,37,52,40,28,100,76,52,30.33,29.88,20,8,29,0.00
2013-1-15,43,36,30,30,27,25,92,71,52,30.38,30.25,8,2,0,0.00
2013-1-16,37,35,32,36,32,27,100,92,69,30.27,29.84,7,1,0,0.00
2013-1-17,43,34,28,36,27,12,100,77,46,30.18,29.88,12,4,20,0.00
2013-1-18,28,25,19,14,9,0,73,51,32,30.44,30.10,16,6,24,0.00
2013-1-19,48,39,28,30,24,14,64,54,42,30.31,29.81,25,17,36,0.00
2013-1-20,52,42,30,36,25,12,65,51,23,30.03,29.62,22,12,30,0.00
2013-1-21,30,26,19,25,18,10,100,71,43,30.09,29.81,9,4,16,0.00
2013-1-22,27,21,14,23,5,0,92,51,32,30.15,29.81,17,8,29,0.00
2013-1-23,19,13,7,5,2,0,84,63,44,30.22,30.13,12,4,21,0.00
2013-1-24,21,12,1,9,2,0,100,67,41,30.37,30.17,20,6,32,0.00
2013-1-25,23,17,10,18,6,1,92,62,38,30.42,30.09,12,5,17,0.00
2013-1-26,27,21,14,16,10,5,92,66,42,30.25,30.08,13,7,22,0.00
2013-1-27,34,26,9,12,4,0,92,42,22,30.52,30.46,12,5,18,0.00
2013-1-28,37,29,18,36,22,9,93,77,49,30.50,29.96,14,4,21,0.00
2013-1-29,45,38,32,39,36,32,100,91,80,30.16,29.98,15,3,23,0.00
2013-1-30,61,53,43,57,50,39,100,92,86,30.07,29.33,23,10,27,0.00
2013-1-31,55,42,32,55,25,12,100,54,38,29.68,29.17,17,10,30,0.00
2013-2-1,34,29,25,21,12,9,74,48,36,30.18,29.67,20,7,28,0.00
2013-2-2,32,25,16,21,14,7,85,63,36,30.25,30.04,18,8,27,0.00
2013-2-3,34,25,18,21,18,12,100,75,40,30.06,29.79,5,0,0,0.00
2013-2-4,32,26,19,23,15,7,100,64,34,29.97,29.79,14,5,22,0.00
2013-2-5,34,28,23,27,18,16,86,67,47,30.02,29.90,7,2,0,0.00
2013-2-6,43,32,23,28,20,3,92,64,31,30.39,29.91,14,5,22,0.00
2013-2-7,34,25,14,18,11,7,92,57,34,30.54,30.38,9,2,0,0.00
2013-2-8,37,32,27,32,25,12,100,77,43,30.39,29.80,15,6,24,0.00
2013-2-9,30,24,9,27,15,1,100,69,39,30.37,29.83,22,12,31,0.00
2013-2-10,34,19,1,16,7,0,100,62,29,30.51,30.29,7,1,0,0.00
2013-2-11,46,39,21,43,33,10,100,83,40,30.29,29.67,15,8,21,0.00
2013-2-12,45,42,39,37,30,25,93,62,55,29.96,29.70,13,6,23,0.00
2013-2-13,45,39,34,28,27,25,80,61,45,29.93,29.73,9,2,0,0.00
2013-2-14,45,36,23,30,27,21,92,68,48,29.97,29.73,10,2,0,0.00
2013-2-15,54,45,36,34,30,27,93,57,40,30.03,29.89,14,7,20,0.00
2013-2-16,37,34,28,34,23,12,100,66,46,30.03,29.84,15,7,21,0.00
2013-2-17,28,25,19,12,7,3,62,47,33,29.95,29.69,22,13,36,0.00
2013-2-18,36,24,16,16,7,1,79,50,26,30.21,29.94,15,7,27,0.00
2013-2-19,46,34,19,39,28,16,100,78,45,30.17,29.63,18,6,27,0.00
2013-2-20,37,32,28,36,19,10,100,58,37,29.94,29.67,20,10,27,0.00
2013-2-21,28,27,25,18,16,12,68,61,50,30.37,29.92,20,9,28,0.00
2013-2-22,39,32,25,28,23,18,79,68,55,30.44,30.27,10,4,0,0.00
2013-2-23,41,38,36,39,35,28,100,90,69,30.27,29.88,12,3,18,0.00
2013-2-24,45,38,37,39,34,28,100,85,60,30.00,29.76,13,5,20,0.00
2013-2-25,37,36,30,32,30,27,92,79,69,30.26,29.99,9,2,0,0.00
2013-2-26,48,39,27,34,30,27,100,71,46,30.32,30.05,10,3,0,0.00
2013-2-27,48,42,36,43,38,30,100,86,69,30.05,29.50,14,3,27,0.00
2013-2-28,46,41,37,41,39,37,100,93,75,29.62,29.56,8,1,0,0.00
2013-3-1,46,40,37,37,34,28,100,81,61,29.78,29.62,13,4,22,0.00
2013-3-2,39,35,30,28,27,27,86,72,60,29.79,29.72,12,6,16,0.00
2013-3-3,36,31,28,28,23,18,86,71,59,29.78,29.70,13,7,18,0.00
2013-3-4,39,34,30,28,25,21,80,68,55,29.92,29.77,17,9,25,0.00
2013-3-5,46,37,30,30,28,27,92,69,52,30.08,29.92,16,7,21,0.00
2013-3-6,46,39,28,36,30,27,92,73,52,30.10,30.02,20,9,31,0.00
2013-3-7,41,37,34,36,31,27,100,78,60,30.15,30.07,17,10,27,0.00
2013-3-8,45,37,34,34,32,28,100,83,56,30.28,30.07,18,11,31,0.00
2013-3-9,52,37,21,30,27,19,100,68,37,30.35,30.27,15,5,22,0.00
2013-3-10,55,40,21,36,28,19,100,65,35,30.38,30.23,15,6,20,0.00
2013-3-11,54,47,39,45,39,34,87,73,58,30.26,30.02,21,13,28,0.00
2013-3-12,57,53,43,55,49,37,100,87,76,30.04,29.67,20,9,28,0.00
2013-3-13,52,42,34,39,31,25,93,66,37,29.89,29.79,10,5,20,0.00
2013-3-14,37,32,28,32,18,12,80,56,43,29.92,29.85,16,9,28,0.00
2013-3-15,43,35,25,36,22,16,93,61,38,29.96,29.69,16,7,24,0.00
2013-3-16,39,35,27,30,20,16,74,55,38,29.93,29.78,12,4,20,0.00
2013-3-17,39,32,21,21,14,9,79,48,29,30.34,29.93,16,6,27,0.00
2013-3-18,43,30,18,30,16,9,92,60,24,30.46,30.10,12,3,18,0.00
2013-3-19,37,36,32,37,33,28,100,89,74,30.11,29.71,10,3,16,0.00
2013-3-20,43,34,27,30,24,19,100,68,38,29.84,29.77,13,3,21,0.00
2013-3-21,41,31,19,27,18,12,92,60,32,29.84,29.65,15,4,20,0.00
2013-3-22,39,32,21,32,24,16,92,71,51,29.85,29.71,10,3,17,0.00
2013-3-23,46,39,34,30,25,19,86,59,36,29.91,29.80,17,8,30,0.00
2013-3-24,46,39,30,28,26,25,86,58,42,29.93,29.76,13,6,20,0.00
2013-3-25,50,40,32,30,28,25,86,64,39,29.79,29.51,13,5,22,0.00
2013-3-26,52,40,30,34,29,23,93,67,36,29.87,29.61,14,3,20,0.00
2013-3-27,55,41,25,32,28,23,100,63,30,29.96,29.84,16,4,27,0.00
2013-3-28,50,45,37,39,36,32,86,69,57,30.12,29.95,10,4,0,0.00
2013-3-29,54,45,28,36,32,28,100,62,40,30.15,30.07,12,4,17,0.00
2013-3-30,59,45,28,36,29,21,100,59,24,30.16,30.07,15,3,22,0.00
2013-3-31,61,44,27,45,31,-100,100,67,30,30.13,29.73,22,6,31,0.00
2013-4-1,59,45,36,46,37,18,100,75,35,29.91,29.59,17,6,32,0.00
2013-4-2,43,36,30,27,18,12,86,48,32,30.05,29.89,20,8,29,0.00
2013-4-3,46,38,32,25,19,16,74,47,30,30.30,30.03,20,8,33,0.00
2013-4-4,59,43,23,28,22,18,92,49,22,30.38,30.00,17,6,23,0.00
2013-4-5,61,49,41,28,26,21,60,41,26,30.01,29.76,18,9,28,0.00
2013-4-6,52,40,32,28,16,9,69,40,18,30.31,30.00,17,7,27,0.00
2013-4-7,63,51,32,45,31,21,74,49,24,30.28,29.93,27,13,38,0.00
2013-4-8,64,54,43,45,40,37,87,61,36,30.13,29.96,17,4,24,0.00
2013-4-9,72,63,54,52,47,43,76,57,37,30.02,29.87,18,7,23,0.00
2013-4-10,63,56,52,54,52,45,100,84,62,30.02,29.82,9,4,17,0.00
2013-4-11,52,45,36,48,37,28,100,74,46,30.15,29.89,15,9,22,0.00
2013-4-12,45,41,36,39,38,36,100,89,75,30.14,29.78,13,4,21,0.00
2013-4-13,55,47,39,45,40,37,100,79,50,29.95,29.82,16,2,23,0.00
2013-4-14,52,45,34,41,34,28,100,68,40,30.25,29.94,13,4,22,0.00
2013-4-15,36,33,32,34,31,30,93,91,86,30.36,30.24,3,0,0,0.00
2013-4-16,66,61,46,57,50,37,87,69,55,30.33,30.07,20,11,29,0.00
2013-4-17,68,56,43,57,40,34,93,58,29,30.32,30.13,17,6,22,0.00
2013-4-18,66,54,37,50,39,36,100,61,34,30.36,30.08,23,9,31,0.00
2013-4-19,77,67,50,66,60,46,93,78,61,30.09,29.56,23,14,32,0.00
2013-4-20,61,50,39,46,37,28,93,64,31,30.35,29.73,15,8,24,0.00
2013-4-21,55,43,36,30,24,19,80,48,25,30.65,30.34,16,7,21,0.00
2013-4-22,63,48,34,36,29,21,86,52,25,30.71,30.50,13,4,20,0.00
2013-4-23,55,46,34,43,37,30,86,71,58,30.54,30.15,7,2,0,0.00
2013-4-24,79,59,37,54,46,37,100,66,34,30.16,29.73,17,7,25,0.00
2013-4-25,64,54,41,55,37,30,87,55,29,30.27,29.77,16,8,29,0.00
2013-4-26,63,49,34,39,35,30,100,62,33,30.46,30.27,15,5,20,0.00
2013-4-27,70,52,34,41,34,21,100,58,18,30.46,30.28,13,3,18,0.00
2013-4-28,79,59,37,45,38,-100,93,53,22,30.32,30.13,17,4,24,0.00
2013-4-29,64,59,55,55,46,34,93,64,36,30.24,30.19,16,6,21,0.00
2013-4-30,75,63,52,54,45,32,100,59,25,30.32,30.23,9,4,17,0.00
2013-5-1,81,64,43,45,37,30,81,40,17,30.46,30.32,10,4,17,0.00
2013-5-2,82,66,46,50,44,39,93,49,22,30.47,30.27,18,2,25,0.00
2013-5-3,75,64,50,46,38,34,71,39,25,30.49,30.32,9,4,20,0.00
2013-5-4,81,64,45,48,45,34,100,54,25,30.37,30.18,9,3,0,0.00
2013-5-5,79,61,43,46,40,34,93,53,22,30.32,30.15,8,3,0,0.00
2013-5-6,79,62,43,54,45,39,100,58,24,30.28,30.10,10,4,0,0.00
2013-5-7,84,69,52,57,54,48,93,61,28,30.18,30.05,10,4,17,0.00
2013-5-8,75,66,55,64,60,54,93,80,57,30.15,29.99,12,2,20,0.00
2013-5-9,73,62,52,61,56,50,100,81,56,30.03,29.88,9,2,0,0.00
2013-5-10,82,66,50,59,52,-100,100,67,37,30.00,29.88,10,3,0,0.00
2013-5-11,72,69,61,66,63,54,93,82,72,29.76,29.69,17,8,23,0.00
2013-5-12,66,58,50,55,44,-100,87,64,29,29.89,29.67,17,5,24,0.00
2013-5-13,55,50,39,39,32,28,86,52,37,30.11,29.89,10,4,16,0.00
2013-5-14,63,49,36,39,34,28,100,62,29,30.14,30.02,14,3,18,0.00
2013-5-15,72,54,36,57,45,34,100,75,41,30.07,29.63,21,6,25,0.00
2013-5-16,84,65,50,55,27,-100,100,50,20,29.86,29.69,14,5,30,0.00
2013-5-17,73,62,52,52,40,-100,81,51,31,30.23,29.86,17,6,23,0.00
2013-5-18,75,61,43,52,47,43,100,65,33,30.32,30.22,15,5,22,0.00
2013-5-19,63,62,57,59,56,52,93,83,76,30.32,30.17,10,7,16,0.00
2013-5-20,86,72,59,68,62,57,93,74,48,30.17,29.94,7,2,0,0.00
2013-5-21,93,76,63,72,67,61,100,75,46,29.96,29.79,21,4,27,0.00
2013-5-22,82,75,66,73,69,64,100,82,69,29.91,29.80,17,7,25,0.00
2013-5-23,79,74,66,72,68,64,94,83,65,29.85,29.74,18,8,27,0.00
2013-5-24,70,57,46,68,54,45,100,91,71,30.00,29.67,14,7,22,0.00
2013-5-25,52,48,46,46,45,43,100,90,81,29.99,29.92,17,10,29,0.00
2013-5-26,61,54,45,48,44,41,100,69,48,30.16,29.89,20,8,31,0.00
2013-5-27,77,59,41,46,42,36,100,59,23,30.23,30.12,12,3,18,0.00
2013-5-28,75,59,43,59,50,41,100,73,38,30.24,30.14,13,3,16,0.00
2013-5-29,84,70,61,72,65,59,100,84,62,30.14,29.92,13,5,36,0.00
2013-5-30,93,82,63,75,71,63,100,71,46,30.12,30.05,8,2,0,0.00
2013-5-31,97,82,64,73,68,64,100,66,34,30.13,29.94,13,3,18,0.00
2013-6-1,97,83,66,73,69,63,93,64,39,29.99,29.85,15,6,21,0.00
2013-6-2,91,81,72,73,70,-100,94,73,52,29.87,29.72,20,9,28,0.00
2013-6-3,77,70,54,70,61,46,100,74,52,29.96,29.80,13,5,18,0.00
2013-6-4,75,63,46,48,46,45,100,57,33,30.15,29.95,17,5,24,0.00
2013-6-5,77,64,48,55,49,45,93,61,33,30.23,30.11,7,1,0,0.00
2013-6-6,77,66,57,59,55,48,93,68,36,30.16,30.05,18,5,23,0.00
2013-6-7,63,62,61,61,59,57,93,90,82,30.05,29.78,8,2,0,0.00
2013-6-8,79,66,57,63,60,55,100,80,54,30.07,29.72,13,5,17,0.00
2013-6-9,82,69,54,64,58,52,100,73,42,30.19,30.07,8,2,0,0.00
2013-6-10,70,64,57,66,61,55,100,90,82,30.19,29.88,6,1,0,0.00
2013-6-11,79,69,63,72,64,59,100,85,68,29.88,29.59,10,4,20,0.00
2013-6-12,77,68,61,61,56,52,93,66,43,29.87,29.68,18,5,28,0.00
2013-6-13,63,60,55,61,58,54,100,93,87,29.84,29.65,9,2,0,0.00
2013-6-14,81,66,55,63,58,54,100,79,41,29.88,29.68,12,4,18,0.00
2013-6-15,82,68,54,59,54,48,100,66,30,30.01,29.89,10,2,0,0.00
2013-6-16,79,68,54,66,58,52,100,73,53,29.99,29.72,17,4,24,0.00
2013-6-17,90,72,57,70,63,57,100,78,37,29.93,29.80,17,3,25,0.00
2013-6-18,72,65,59,64,61,55,100,87,68,29.97,29.90,13,3,17,0.00
2013-6-19,77,65,55,57,51,45,100,65,33,30.19,29.96,14,5,18,0.00
2013-6-20,82,64,50,57,52,48,100,72,37,30.29,30.19,8,1,0,0.00
2013-6-22,90,81,77,68,66,63,69,62,43,30.19,30.09,12,7,16,0.00
2013-6-23,95,82,73,73,68,64,83,63,38,30.15,30.00,14,7,22,0.00
2013-6-30,91,76,68,75,71,66,100,85,55,29.93,29.69,14,3,18,0.00
2013-7-1,81,74,72,75,72,72,100,93,83,30.02,29.92,7,2,0,0.00
2013-7-2,82,78,75,79,74,73,94,88,83,30.11,30.03,10,5,0,0.00
2013-7-3,90,84,79,75,74,73,83,73,59,30.17,30.14,13,9,0,0.00
2013-7-4,93,88,73,75,75,72,94,66,52,30.22,30.10,16,8,22,0.00
2013-7-5,97,84,79,75,75,73,88,75,50,30.19,30.05,14,6,18,0.00
2013-7-6,93,86,77,77,74,72,88,69,52,30.12,30.02,13,2,0,0.00
2013-7-18,100,87,79,75,73,73,83,68,42,30.06,29.95,7,3,0,0.00
2013-7-19,95,95,95,73,73,73,49,49,49,29.75,29.75,8,8,0,0.00
2013-7-20,93,80,72,77,65,-100,83,64,46,29.87,29.71,9,4,20,0.00
2013-7-21,88,75,64,70,66,63,93,74,45,30.00,29.87,8,1,0,0.00
2013-7-22,82,71,68,73,66,61,94,85,73,30.02,29.84,6,1,0,0.00
2013-7-23,81,77,75,75,74,73,94,91,83,29.76,29.59,0,0,0,0.00
2013-7-24,81,78,72,73,62,55,100,59,47,29.91,29.63,16,8,22,0.00
2013-8-4,81,67,59,63,58,52,93,74,39,29.98,29.87,12,2,21,0.00
2013-8-5,79,66,61,57,55,48,82,69,34,30.06,29.98,6,1,0,0.00
2013-8-6,84,67,52,63,55,50,93,69,37,30.12,30.07,10,3,0,0.00
2013-8-7,79,76,73,66,65,64,78,71,61,30.13,30.06,12,7,0,0.00
2013-8-8,86,76,73,73,70,68,88,82,62,30.04,30.00,14,7,17,0.00
2013-8-9,82,76,75,75,73,73,100,92,78,29.95,29.80,10,2,0,0.00
2013-8-10,84,73,59,73,60,54,100,66,41,30.08,29.87,9,3,18,0.00
2013-10-20,64,55,46,54,37,-100,87,56,34,30.05,29.72,13,6,20,0.00
2013-10-21,70,54,39,45,41,37,93,65,32,30.11,29.95,16,5,22,0.00
2013-10-22,61,53,39,54,46,37,100,76,62,29.95,29.76,10,6,0,0.00
2013-10-23,55,45,36,43,37,34,100,78,43,29.84,29.63,6,1,0,0.00
2013-10-24,55,44,32,39,32,27,100,68,32,29.95,29.74,13,4,21,0.00
2013-10-25,54,44,37,37,36,32,93,72,46,30.19,29.95,8,2,18,0.00
2013-10-26,55,44,32,36,33,30,93,69,37,30.18,29.91,21,10,29,0.00
2013-11-11,54,49,43,37,34,30,81,56,40,30.17,29.94,12,6,27,0.00
2013-11-12,50,38,30,37,26,21,70,61,53,30.29,29.94,14,8,23,0.00
2013-11-13,39,31,25,21,19,14,85,61,35,30.38,30.21,13,6,21,0.00
2013-11-14,54,41,25,27,24,19,85,53,30,30.21,30.09,7,3,0,0.00
2013-11-15,59,40,27,30,25,19,80,59,30,30.22,30.11,7,2,0,0.00
2013-11-16,39,32,37,32,9,-100,75,61,69,30.28,30.21,5,1,0,0.00
2013-11-17,55,55,55,55,55,55,100,100,100,30.02,30.02,0,0,0,0.00